Location: Azul
(36.7830°S, 59.8500°W)
Time: 09:56:45
(UTC-03:00)

UKube-1 - Pass Details

Date: 26 October 2021
Orbit: 611 x 617 km, 98.4° (Epoch: 07 December)

Event Time Altitude Azimuth Distance (km) Brightness Sun altitude
Exits shadow 20:30:21 18° 49° (NE) 1,525 ? -12.7°
Maximum altitude 20:33:05 38° 108° (ESE) 954 ? -13.2°
Drops below altitude 10° 20:37:07 10° 176° (S) 2,006 ? -13.9°
Sets 20:39:25 0° 183° (S) 2,918 ? -14.3°
